Home > Weather > Cagliari > Past weeks

Flag for Italy Weather for the Past 2 Weeks in Cagliari, Italy

Now
45 °F

Clear.


Feels Like: 42 °F
Forecast: 51 / 62 °F
Wind: 5 mph from Northwest

Location: Cagliari / Elmas

Current Time: Feb 9, 2016 at 6:59:35 AM

Latest Report: Feb 9, 2016 at 5:50 AM


Visibility: 10 mi

Pressure: 30.21 "Hg

Humidity: 100%

Dew point: 45 °F

Location of CagliariLocation

Historic Weather in Cagliari — Graph

°F

Cagliari Temperature Yesterday

Maximum temperature yesterday: 63 °F (at 1:20 PM)
Minimum temperature yesterday: 48 °F (at 7:20 AM)
Average temperature yesterday: 55 °F

High & Low Weather Summary for the Past Weeks

 TemperatureHumidityPressure
High66 °F (Feb 1, 11:50 AM)100% (Jan 25, 5:20 AM)30.60 "Hg (Jan 25, 5:20 AM)
Low36 °F (Jan 26, 4:50 AM)45% (Feb 4, 1:20 PM)29.89 "Hg (Feb 7, 3:20 PM)
Average53 °F81%30.34 "Hg
* Reported Jan 25 5:20 AM — Feb 9 5:20 AM, Cagliari, Weather by CustomWeather, © 2016

Note: Actual official high and low records may vary slightly from our data, if they occured in-between our weather recording intervals... More about our weather records

Advertising

Cagliari Weather History for the Previous 24 Hours

 ConditionsComfort  
Time TempWeatherWind HumidityBarometerVisibility
5:20 AM
Tue, Feb 9
45 °FClear.2 mph100%30.18 "Hg10 mi
4:50 AM45 °FClear.2 mph93%30.21 "Hg10 mi
4:20 AM46 °FPassing clouds.5 mph93%30.21 "HgN/A
3:50 AM45 °FPassing clouds.5 mph93%30.21 "HgN/A
3:20 AM46 °FPassing clouds.1 mph87%30.21 "HgN/A
2:50 AM46 °FPassing clouds.6 mph93%30.24 "HgN/A
2:20 AM48 °FClear.5 mph94%30.24 "Hg10 mi
1:50 AM46 °FClear.5 mph93%30.24 "Hg10 mi
1:20 AM48 °FClear.6 mph94%30.24 "Hg10 mi
12:50 AM48 °FClear.7 mph87%30.27 "Hg10 mi
12:20 AM50 °FPassing clouds.5 mph88%30.27 "HgN/A
11:50 PM
Mon, Feb 8
50 °FPassing clouds.3 mph88%30.27 "HgN/A
11:20 PM50 °FPassing clouds.5 mph82%30.27 "HgN/A
10:50 PM50 °FClear.5 mph82%30.27 "Hg10 mi
10:20 PM50 °FClear.5 mph82%30.27 "Hg10 mi
9:50 PM50 °FClear.7 mph82%30.27 "Hg10 mi
9:20 PM52 °FPassing clouds.6 mph82%30.27 "HgN/A
8:50 PM52 °FPassing clouds.6 mph82%30.27 "HgN/A
8:20 PM54 °FPassing clouds.9 mph77%30.27 "HgN/A
7:20 PM54 °FClear.8 mph77%30.24 "Hg10 mi
6:50 PM54 °FPassing clouds.6 mph77%30.24 "HgN/A
6:20 PM55 °FPassing clouds.8 mph72%30.21 "HgN/A
5:50 PM57 °FPassing clouds.12 mph67%30.21 "HgN/A
5:20 PM59 °FPassing clouds.12 mph63%30.21 "HgN/A
4:50 PM61 °FPassing clouds.12 mph59%30.18 "HgN/A
4:20 PM61 °FPassing clouds.14 mph52%30.18 "HgN/A
3:50 PM61 °FPassing clouds.16 mph52%30.18 "HgN/A
3:20 PM63 °FPassing clouds.17 mph52%30.18 "HgN/A
2:50 PM63 °FPassing clouds.20 mph52%30.18 "HgN/A
2:20 PM63 °FPassing clouds.22 mph52%30.15 "HgN/A
1:50 PM63 °FPassing clouds.22 mph52%30.18 "HgN/A
1:20 PM63 °FPassing clouds.22 mph52%30.18 "HgN/A
12:50 PM61 °FPassing clouds.22 mph59%30.18 "HgN/A
12:20 PM61 °FPassing clouds.20 mph59%30.18 "HgN/A
11:50 AM61 °FPassing clouds.20 mph59%30.18 "HgN/A
11:20 AM59 °FPassing clouds.18 mph63%30.18 "HgN/A
10:50 AM59 °FPassing clouds.18 mph63%30.18 "HgN/A
10:20 AM57 °FPassing clouds.17 mph67%30.15 "HgN/A
9:50 AM55 °FSunny.16 mph72%30.15 "Hg10 mi
9:20 AM54 °FSunny.12 mph77%30.12 "Hg10 mi
8:50 AM54 °FSunny.12 mph77%30.12 "Hg10 mi
8:20 AM52 °FSunny.9 mph82%30.12 "Hg10 mi
7:50 AM50 °FPassing clouds.8 mph82%30.09 "HgN/A
7:20 AM48 °FPassing clouds.7 mph87%30.09 "HgN/A
6:50 AM50 °FClear.10 mph88%30.07 "Hg10 mi
6:20 AM50 °FClear.8 mph88%30.07 "Hg10 mi
Weather by CustomWeather, © 2016

See weather overviewHow to use our weather pages